Weather History for Crescent City, CA

Change the Weather History Date:

Monday, February 17, 2014

  Actual Average Record
Temperature  
Mean Temperature 51 °F 48 °F  
Max Temperature 52 °F 53 °F 64 °F (1958)
Min Temperature 49 °F 42 °F 32 °F (1990)
Degree Days  
Heating Degree Days 14 17  
Month to date heating degree days 275 303  
Since 1 July heating degree days 2996 2989  
Cooling Degree Days 0 0  
Month to date cooling degree days 0 0  
Year to date cooling degree days 0 0  
Growing Degree Days 1 (Base 50)    
Moisture  
Dew Point 48 °F    
Average Humidity 82    
Maximum Humidity 100    
Minimum Humidity 63    
Precipitation  
Precipitation 0.21 in 0.30 in 5.10 in (1986)
Month to date precipitation 8.38 5.58  
Year to date precipitation 10.53 15.97  
Since 1 July precipitation 19.52 43.07  
Snow  
Snow 0.00 in - - ()
Month to date snowfall 0.0  
Since 1 July snowfall 0.0  
Snow Depth 0.00 in    
Sea Level Pressure  
Sea Level Pressure 30.14 in    
Wind  
Wind Speed 16 mph (SSE)    
Max Wind Speed 24 mph    
Max Gust Speed 31 mph    
Visibility 6 miles    
Events Rain    
T = Trace of Precipitation, MM = Missing Value Source: NWS Daily Summary

Daily Weather History Graph

Daily Weather History Graph

Search for Another Location

Airport:

Trip Planner

Search our weather history database for the weather conditions in past years. The results will help you decide how hot, cold, wet, or windy it might be!

Date:

Astronomy

Feb. 17, 2014 Rise Set
Actual Time 7:09 AM PST 5:52 PM PST
Civil Twilight 6:41 AM PST 6:21 PM PST
Nautical Twilight 6:08 AM PST 6:53 PM PST
Astronomical Twilight 5:36 AM PST 7:26 PM PST
Moon 8:56 PM PST (2/17) 8:10 AM PST (2/17)
Length of Visible Light 11h 40m
Length of Day
10h 43m
Waning Gibbous, 93% of the Moon is Illuminated
Feb 17
Waning Gibbous
Feb 22
Last Quarter
Mar 1
New
Mar 8
First Quarter
Mar 16
Full

Hourly Weather History & Observations

Time (PST) Temp. Dew Point Humidity Pressure Visibility Wind Dir Wind Speed Gust Speed Precip Events Conditions
12:56 AM 50.0 °F 39.9 °F 68% 30.14 in 10.0 mi SSE 15.0 mph - N/A   Clear
1:56 AM 50.0 °F 39.9 °F 68% 30.13 in 10.0 mi SE 15.0 mph - N/A   Scattered Clouds
2:56 AM 51.1 °F 39.9 °F 66% 30.12 in 10.0 mi SSE 12.7 mph - N/A   Mostly Cloudy
3:56 AM 51.1 °F 39.9 °F 66% 30.13 in 10.0 mi SSE 13.8 mph - N/A   Overcast
4:56 AM 51.1 °F 42.1 °F 71% 30.12 in 10.0 mi SSE 17.3 mph - 0.00 in   Overcast
5:41 AM 50.0 °F 43.0 °F 77% 30.13 in 9.0 mi SSE 17.3 mph 26.5 mph 0.00 in Rain Light Rain
5:56 AM 50.0 °F 43.0 °F 77% 30.13 in 9.0 mi SSE 18.4 mph - 0.01 in Rain Light Rain
6:06 AM 50.0 °F 44.1 °F 80% 30.12 in 10.0 mi SSE 18.4 mph - 0.00 in Rain Light Rain
6:56 AM 50.0 °F 44.1 °F 80% 30.12 in 10.0 mi SSE 18.4 mph 25.3 mph 0.00 in Rain Light Rain
7:14 AM 50.0 °F 44.1 °F 80% 30.11 in 10.0 mi SE 18.4 mph - 0.00 in Rain Light Rain
7:23 AM 50.0 °F 44.1 °F 80% 30.11 in 10.0 mi SSE 16.1 mph - 0.00 in   Overcast
7:56 AM 50.0 °F 45.0 °F 83% 30.12 in 7.0 mi SSE 16.1 mph - 0.00 in Rain Light Rain
8:56 AM 50.0 °F 46.0 °F 86% 30.13 in 4.0 mi SSE 16.1 mph 27.6 mph 0.01 in Rain Light Rain
9:56 AM 50.0 °F 46.9 °F 89% 30.14 in 5.0 mi SSE 17.3 mph 26.5 mph 0.01 in Rain Light Rain
10:56 AM 51.1 °F 48.0 °F 89% 30.14 in 5.0 mi SSE 17.3 mph 25.3 mph 0.01 in Rain Light Rain
11:44 AM 51.1 °F 48.0 °F 89% 30.14 in 2.5 mi SSE 18.4 mph 26.5 mph 0.00 in Rain Light Rain
11:56 AM 51.1 °F 48.0 °F 89% 30.14 in 2.0 mi SSE 16.1 mph 25.3 mph 0.01 in Rain Light Rain
12:00 PM 51.1 °F 48.9 °F 92% 30.14 in 1.8 mi SSE 16.1 mph - 0.00 in Rain Light Rain
12:09 PM 50.0 °F 48.0 °F 93% 30.14 in 2.5 mi SSE 15.0 mph 25.3 mph 0.00 in Rain Light Rain
12:20 PM 51.1 °F 48.9 °F 92% 30.14 in 2.5 mi SSE 16.1 mph 24.2 mph 0.00 in Rain Light Rain
12:54 PM 51.8 °F 48.2 °F 88% 30.13 in 1.8 mi SSE 18.4 mph 24.2 mph 0.01 in Rain Light Rain
12:55 PM 51.1 °F 48.9 °F 92% 30.14 in 1.5 mi SSE 17.3 mph 24.2 mph 0.01 in Rain Light Rain
1:14 PM 51.1 °F 48.9 °F 92% 30.13 in 2.5 mi SSE 19.6 mph 27.6 mph 0.02 in Rain Light Rain
1:27 PM 51.1 °F 48.9 °F 92% 30.13 in 5.0 mi SSE 20.7 mph 28.8 mph 0.02 in Rain Light Rain
1:41 PM 51.1 °F 48.9 °F 92% 30.13 in 6.0 mi SSE 18.4 mph 27.6 mph 0.02 in   Overcast
1:56 PM 51.1 °F 48.9 °F 92% 30.13 in 5.0 mi SSE 20.7 mph 26.5 mph 0.02 in   Overcast
2:37 PM 51.1 °F 48.9 °F 92% 30.12 in 1.8 mi SSE 21.9 mph 29.9 mph 0.02 in Rain Rain
2:56 PM 51.1 °F 50.0 °F 96% 30.13 in 2.0 mi South 20.7 mph 28.8 mph 0.05 in Rain Light Rain
3:08 PM 51.1 °F 50.0 °F 96% 30.13 in 4.0 mi South 23.0 mph 27.6 mph 0.00 in Rain Light Rain
3:28 PM 51.1 °F 50.0 °F 96% 30.14 in 1.8 mi SSE 17.3 mph 27.6 mph 0.02 in Rain Heavy Rain
3:45 PM 51.1 °F 50.0 °F 96% 30.14 in 3.0 mi SSE 18.4 mph 26.5 mph 0.05 in Rain Light Rain
3:56 PM 52.0 °F 50.0 °F 93% 30.14 in 5.0 mi South 21.9 mph - 0.06 in Rain Light Rain
4:11 PM 52.0 °F 50.0 °F 93% 30.14 in 2.5 mi South 21.9 mph 29.9 mph 0.00 in Rain Light Rain
4:38 PM 52.0 °F 51.1 °F 97% 30.15 in 3.0 mi South 17.3 mph - 0.01 in Rain Light Rain
4:54 PM 51.8 °F 50.0 °F 94% 30.14 in 5.0 mi SSE 16.1 mph - 0.02 in   Overcast
4:56 PM 52.0 °F 50.0 °F 93% 30.15 in 5.0 mi SSE 17.3 mph - 0.02 in   Overcast
5:04 PM 52.0 °F 50.0 °F 93% 30.15 in 6.0 mi SSE 17.3 mph - 0.00 in Rain Light Rain
5:56 PM 52.0 °F 50.0 °F 93% 30.14 in 6.0 mi SSE 12.7 mph - 0.00 in   Overcast
6:48 PM 51.1 °F 50.0 °F 96% 30.15 in 9.0 mi SSE 15.0 mph - N/A   Mostly Cloudy
6:56 PM 51.1 °F 50.0 °F 96% 30.16 in 10.0 mi SSE 16.1 mph - N/A   Overcast
7:48 PM 52.0 °F 51.1 °F 97% 30.15 in 7.0 mi SSE 15.0 mph - N/A   Overcast
7:56 PM 52.0 °F 51.1 °F 97% 30.16 in 7.0 mi SSE 13.8 mph - N/A   Overcast
8:56 PM 52.0 °F 51.1 °F 97% 30.17 in 7.0 mi SSE 11.5 mph - N/A   Overcast
9:56 PM 52.0 °F 51.1 °F 97% 30.18 in 7.0 mi SSE 12.7 mph - N/A   Overcast
10:56 PM 52.0 °F 51.1 °F 97% 30.19 in 8.0 mi South 11.5 mph - N/A   Overcast
11:56 PM 52.0 °F 50.0 °F 93% 30.19 in 7.0 mi South 12.7 mph - N/A   Overcast